Back to catalog

SLOSHSAT

LostScienceHEO
NORAD 28544·PAYLOAD·🇪🇺 EU

Launched Feb 12, 2005 from Guiana Space Centre

Loading…

Next Passes (next 24 hours)

TLE

StaleSource: Space-Track

Epoch: Apr 4, 2026, 06:57 UTC

1 28544U 05005C   26094.28998134  .00004949  00000-0  10691-2 0  9993
2 28544   7.2238  29.6756 6956334 209.4165  80.5329  2.70296939189186

Track SLOSHSAT in real time with AllMySat

Download on the App Store